Starlink 11635

operational
NORAD ID: 63193 Int'l Des: 2025-048 Owner: SPXS Country: US Constellation: starlink
LEOCIRCULAR

Über Starlink 11635

Beschreibung wird geladen...

Live-Position

3D-Globus wird geladen...

Nächste Überflüge

Höhenverlauf

Altitude vs Time

uPlot chart will show altitude changes over time

Zweizeiliger Elementsatz

1 63193U 25048L 26095.58087728 .00251139 00000-0 18959-2 0 9993
2 63193 43.0037 157.5168 0002990 270.3969 89.6556 15.70917045 62758
Epoch: 5. Apr. 2026 • Age: 6 hours

Aktueller Status

Höhe 355.3 km
Geschwindigkeit 7.70 km/s
Subsatellitenpunkt 6.45°N, 27.49°E
Startdatum 13. März 2025
Alter 1 years
Typ internet

Technische Details

Klassifizierung Payload
Masse 960.00 kg
Trockenmasse 910.00 kg
Gesamtmasse 960.00 kg
Länge 0.30 m
Durchmesser 4.10 m
Spannweite 29.00 m
Form Box + pan
Hersteller SPXS
Bus-Typ Starlink V2MD
Phasenstatus In Orbit
Besitzer/Staat SPXS/US

Große Konstellationen

Loading constellations...